Tracking 29892 objects as of 21-Nov-2024
HD Live streaming from Space Station
objects crossing your sky now

STARLINK-5870

Track STARLINK-5870 now!
10-day predictions
STARLINK-5870 is classified as:


NORAD ID: 57222
Int'l Code: 2023-094E
Perigee: 565.2 km
Apogee: 567.4 km
Inclination: 43.0 °
Period: 95.8 minutes
Semi major axis: 6937 km
RCS: Unknown
Launch date: July 7, 2023
Source: United States (US)
Launch site: AIR FORCE WESTERN TEST RANGE (AFWTR)
Your satellite tracking list
Your tracking list is empty




NASA's NSSDC Master Catalog

Two Line Element Set (TLE):
1 57222U 23094E   24325.81223078  .00005540  00000-0  42516-3 0  9998
2 57222  43.0040  85.4971 0001539 278.6329  81.4339 15.02506418 76070
Source of the keplerian elements: AFSPC